CW4859 Mercerville NJ US current weather conditions

sailwx.info

Wind from 311

Air temperature 4.4° C
Dewpoint -4.5° C

Last reported at 2020-Jan-28 22:04 UTC.
Time now 2020-Jan-28 22:23 UTC

Location: N 40°15' W 074°41'.
View on Google Maps.

See reports from other nearby stations

  
Tides and Currents Weather Stations Pressure Air Temp Water Temp Dewpoint Dewpoint Depression Visibility Wind Speed Wind Dir Waves Ship Positions
date/time (UTC)wind fromknots sea level pressurealtimeterstation pressurevisibilityair tempwater tempwave heightnotes
2020-Jan-28 22:09 302 4.4
2020-Jan-28 22:04 311 4.4
2020-Jan-28 21:59 355 4.4
2020-Jan-28 21:54 342 4.4
2020-Jan-28 21:49 291 4.4
2020-Jan-28 21:44 327 4.4
2020-Jan-28 21:39 348 4.4
2020-Jan-28 21:34 340 4.4
2020-Jan-28 21:29 355 4.4
2020-Jan-28 21:24 315 4.4
2020-Jan-28 21:19 336 4.4
2020-Jan-28 21:14 342 4.4
2020-Jan-28 21:09 340 4.4
2020-Jan-28 21:04 295 4.4
2020-Jan-28 20:59 308 4.4
2020-Jan-28 20:54 336 4.4
2020-Jan-28 20:49 325 4.4
2020-Jan-28 20:44 332 4.4
2020-Jan-28 20:39 298 4.4
2020-Jan-28 20:34 350 4.4
2020-Jan-28 20:29 340 4.4
2020-Jan-28 20:24 273 4.4
2020-Jan-28 20:19 4.4
2020-Jan-28 20:14 336 4.4
2020-Jan-28 20:09 286 4.4
2020-Jan-28 20:04 325 4.4
2020-Jan-28 19:59 345 4.4
2020-Jan-28 19:54 286 4.4
2020-Jan-28 19:49 282 4.4
2020-Jan-28 19:44 336 4.4
2020-Jan-28 19:39 340 4.4
2020-Jan-28 19:34 278 4.4
2020-Jan-28 19:29 349 5.0
2020-Jan-28 19:24 327 5.0
2020-Jan-28 19:19 325 5.0
2020-Jan-28 19:14 319 5.0
2020-Jan-28 19:09 318 5.0
2020-Jan-28 19:04 292 5.0
2020-Jan-28 18:59 333 5.0
2020-Jan-28 18:54 309 3 gusting 14 5.0
2020-Jan-28 18:49 319 6 gusting 12 5.0
2020-Jan-28 18:44 300 5 gusting 12 5.0
2020-Jan-28 18:39 300 6 gusting 10 5.0
2020-Jan-28 18:34 283 5.0
2020-Jan-28 18:29 329 5.6
2020-Jan-28 18:24 320 5.6
2020-Jan-28 18:19 301 5.6
2020-Jan-28 18:14 302 5.6
2020-Jan-28 18:09 323 6.1
2020-Jan-28 18:04 348 6.7
2020-Jan-28 17:59 331 6.7
2020-Jan-28 17:54 281 6.7
2020-Jan-28 17:49 306 6.1
2020-Jan-28 17:44 348 6.7
2020-Jan-28 17:39 304 6.7
2020-Jan-28 17:34 338 6.7
2020-Jan-28 17:29 268 6.7
2020-Jan-28 17:24 238 6.1
2020-Jan-28 17:19 336 6.1
2020-Jan-28 17:14 329 6.1
2020-Jan-28 17:09 258 6.1
2020-Jan-28 17:04 252 6.1
2020-Jan-28 16:59 284 6.1
2020-Jan-28 16:54 294 6.1
2020-Jan-28 16:49 300 6.1
2020-Jan-28 16:44 337 6.1
2020-Jan-28 16:39 307 6.1
2020-Jan-28 16:34 333 6.7
2020-Jan-28 16:29 340 6.1
2020-Jan-28 16:24 332 6.1
2020-Jan-28 16:19 330 6.1
2020-Jan-28 16:14 335 5.6
2020-Jan-28 16:09 290 6.1
2020-Jan-28 16:04 330 6.1
2020-Jan-28 15:59 346 6.1
2020-Jan-28 15:54 304 5.6
2020-Jan-28 15:49 331 5.6
2020-Jan-28 15:44 294 5.6
2020-Jan-28 15:39 337 5.6
2020-Jan-28 15:34 316 15 gusting 13 5.0
2020-Jan-28 15:29 303 4 gusting 17 5.0
2020-Jan-28 15:24 344 4 gusting 10 5.0
2020-Jan-28 15:19 325 7 gusting 14 5.0
2020-Jan-28 15:14 288 1 gusting 16 5.0
2020-Jan-28 15:09 320 7 gusting 19 5.0
2020-Jan-28 15:04 332 5.0
2020-Jan-28 14:59 327 3 gusting 15 5.0
2020-Jan-28 14:54 328 13 gusting 15 4.4
2020-Jan-28 14:49 340 12 gusting 17 4.4
2020-Jan-28 14:44 316 12 gusting 13 4.4
2020-Jan-28 14:39 334 4 gusting 12 4.4
2020-Jan-28 14:34 344 3 gusting 13 3.9
2020-Jan-28 14:29 317 6 gusting 8 3.9
2020-Jan-28 14:24 326 5 gusting 13 3.9
2020-Jan-28 14:19 304 6 gusting 9 3.9
2020-Jan-28 14:14 327 1 gusting 13 3.3
2020-Jan-28 14:09 315 3 gusting 13 3.3
2020-Jan-28 14:04 267 2 gusting 13 3.3
2020-Jan-28 13:59 291 2 gusting 13 3.3
2020-Jan-28 13:54 325 6 gusting 11 2.8
2020-Jan-28 13:49 306 3 gusting 7 2.8
2020-Jan-28 13:44 355 2 gusting 5 2.2
2020-Jan-28 13:39 267 0 gusting 6 2.2
2020-Jan-28 13:34 313 3 gusting 5 2.2
2020-Jan-28 13:29 218 0 gusting 6 1.7
2020-Jan-28 13:24 279 1 gusting 6 1.7
2020-Jan-28 13:19 279 1.7
2020-Jan-28 13:14 323 1 gusting 5 1.7
2020-Jan-28 13:09 287 0 gusting 5 1.7
2020-Jan-28 13:04 282 1.1
2020-Jan-28 12:59 301 1 gusting 3 1.1
2020-Jan-28 12:54 315 1.1
2020-Jan-28 12:49 315 1.1
2020-Jan-28 12:44 315 1.1
2020-Jan-28 12:39 315 1.1
2020-Jan-28 12:34 315 1.1
2020-Jan-28 12:29 315 1 gusting 4 1.7
2020-Jan-28 12:24 243 1 gusting 3 1.7
2020-Jan-28 12:19 306 1 gusting 1 1.7
2020-Jan-28 12:14 306 1.7
2020-Jan-28 12:09 306 1.7
2020-Jan-28 12:04 306 1.7
2020-Jan-28 11:59 306 1.7
2020-Jan-28 11:54 306 2.2
2020-Jan-28 11:49 306 0 gusting 1 2.2
2020-Jan-28 11:44 306 2.2
2020-Jan-28 11:39 306 2.2
2020-Jan-28 11:34 306 2.2
2020-Jan-28 11:29 306 2.2
2020-Jan-28 11:24 306 2.2
2020-Jan-28 11:19 306 2.2
2020-Jan-28 11:14 282 2.8
2020-Jan-28 11:09 285 2.8
2020-Jan-28 11:04 285 2.8
2020-Jan-28 10:59 304 2.8
2020-Jan-28 10:54 304 0 gusting 5 2.8
2020-Jan-28 10:49 329 1 gusting 3 2.8
2020-Jan-28 10:44 329 2.8
2020-Jan-28 10:39 280 2.8
2020-Jan-28 10:34 280 2.8
2020-Jan-28 10:29 280 2.8
2020-Jan-28 10:24 323 2.8
2020-Jan-28 10:19 285 0 gusting 8 2.8
2020-Jan-28 10:14 324 2 gusting 8 2.8
2020-Jan-28 10:09 235 3.3
2020-Jan-28 10:04 290 3.3
2020-Jan-28 09:59 293 3.3
2020-Jan-28 09:54 299 3.3
2020-Jan-28 09:49 299 3.3
2020-Jan-28 09:44 288 3.3
2020-Jan-28 09:39 328 3.3
2020-Jan-28 09:34 326 3.3
2020-Jan-28 09:29 327 3.3
2020-Jan-28 09:24 332 3.3
2020-Jan-28 09:19 295 3.3
2020-Jan-28 09:14 288 3.3
2020-Jan-28 09:09 308 3.3
2020-Jan-28 09:04 340 3.3
2020-Jan-28 08:59 325 3.3
2020-Jan-28 08:54 305 3.3
2020-Jan-28 08:49 321 3.3
2020-Jan-28 08:44 305 3.3
2020-Jan-28 08:39 325 3.3
2020-Jan-28 08:34 325 3.3
2020-Jan-28 08:29 325 3.3
2020-Jan-28 08:24 325 3.3
2020-Jan-28 08:19 325 3.3
2020-Jan-28 08:14 325 3.3
2020-Jan-28 08:09 325 3.3
2020-Jan-28 08:04 325 3.3
2020-Jan-28 07:59 341 3.3
2020-Jan-28 07:54 286 3.3
2020-Jan-28 07:49 318 3.3
2020-Jan-28 07:44 338 3.3
2020-Jan-28 07:39 317 3.3
2020-Jan-28 07:34 302 3.3
2020-Jan-28 07:29 309 3.3
2020-Jan-28 07:24 275 3.3
2020-Jan-28 07:19 339 3.3
2020-Jan-28 07:14 014 3.3
2020-Jan-28 07:09 311 3.3
2020-Jan-28 07:04 325 3.3
2020-Jan-28 06:59 351 3.3
2020-Jan-28 06:54 320 3.3
2020-Jan-28 06:49 346 0 gusting 0 3.9
2020-Jan-28 06:44 316 3.9
2020-Jan-28 06:39 321 3.9
2020-Jan-28 06:34 326 3.9
2020-Jan-28 06:29 333 3.9
2020-Jan-28 06:24 286 3.9
2020-Jan-28 06:19 326 3.9
2020-Jan-28 06:14 329 0 gusting 2 3.9
2020-Jan-28 06:09 333 1 gusting 3 3.9
2020-Jan-28 06:04 338 3.9
2020-Jan-28 05:59 286 1 gusting 3 3.9
2020-Jan-28 05:54 294 3.9
2020-Jan-28 05:49 297 3.9
2020-Jan-28 05:44 314 3.9
2020-Jan-28 05:39 314 3.9
2020-Jan-28 05:34 314 3.9
2020-Jan-28 05:29 314 3.9
2020-Jan-28 05:24 314 0 gusting 3 3.9
2020-Jan-28 05:19 324 3.9
2020-Jan-28 05:14 324 4.4
2020-Jan-28 05:09 325 4.4
2020-Jan-28 05:04 288 4.4
2020-Jan-28 04:59 321 4.4
2020-Jan-28 04:54 321 4.4
2020-Jan-28 04:49 316 4.4
2020-Jan-28 04:44 316 4.4
2020-Jan-28 04:39 316 4.4
2020-Jan-28 04:34 316 3 gusting 5 4.4
2020-Jan-28 04:29 319 3 gusting 7 4.4
2020-Jan-28 04:24 282 8 gusting 8 5.0
2020-Jan-28 04:19 324 5.0
2020-Jan-28 04:14 295 1 gusting 6 5.0
2020-Jan-28 04:09 316 6 gusting 8 5.0
2020-Jan-28 04:04 348 9 gusting 11 5.0
2020-Jan-28 03:59 275 1 gusting 10 5.0
2020-Jan-28 03:54 302 2 gusting 8 4.4
2020-Jan-28 03:49 307 4.4
2020-Jan-28 03:44 308 2 gusting 2 5.0
2020-Jan-28 03:39 318 5.0
2020-Jan-28 03:34 297 1 gusting 2 5.0
2020-Jan-28 03:29 297 5.0
2020-Jan-28 03:24 290 5.0
2020-Jan-28 03:19 323 5.0
2020-Jan-28 03:14 323 5.0
2020-Jan-28 03:09 323 5.0
2020-Jan-28 03:04 300 1 gusting 4 5.0
2020-Jan-28 02:59 336 5.0
2020-Jan-28 02:54 322 3 gusting 3 5.0
2020-Jan-28 02:49 303 1 gusting 4 5.0
2020-Jan-28 02:44 277 5.0
2020-Jan-28 02:39 277 5.0
2020-Jan-28 02:34 277 5.0
2020-Jan-28 02:29 293 3 gusting 3 5.0
2020-Jan-28 02:24 293 5.0
2020-Jan-28 02:19 293 1 gusting 3 5.0
2020-Jan-28 02:14 293 5.0
2020-Jan-28 02:09 298 5.0
2020-Jan-28 02:04 302 5.0
2020-Jan-28 01:59 277 5.0
2020-Jan-28 01:54 271 5.0
2020-Jan-28 01:49 246 5.0
2020-Jan-28 01:44 303 0 gusting 3 5.0
2020-Jan-28 01:39 236 5.0
2020-Jan-28 01:34 244 5.0
2020-Jan-28 01:29 243 0 gusting 6 5.0
2020-Jan-28 01:24 296 5.0
2020-Jan-28 01:19 257 3 gusting 3 5.0
2020-Jan-28 01:14 234 5.0
2020-Jan-28 01:09 277 5.0
2020-Jan-28 01:04 211 5.0
2020-Jan-28 00:59 284 5.0
2020-Jan-28 00:54 246 1 gusting 3 5.0
2020-Jan-28 00:49 246 5.0
2020-Jan-28 00:44 246 1 gusting 3 5.0
2020-Jan-28 00:39 267 5.0
2020-Jan-28 00:34 248 3 gusting 3 5.0
2020-Jan-28 00:29 246 1 gusting 3 5.0
2020-Jan-28 00:24 225 5.0
2020-Jan-28 00:19 240 1 gusting 2 5.0
2020-Jan-28 00:14 219 0 gusting 3 5.6
2020-Jan-28 00:09 219 5.6
2020-Jan-28 00:04 219 5.6
2020-Jan-27 23:59 219 5.6
2020-Jan-27 23:54 219 5.6
2020-Jan-27 23:49 219 5.6
2020-Jan-27 23:44 219 0 gusting 0 5.6
2020-Jan-27 23:39 219 6.1
2020-Jan-27 23:34 300 6.1
2020-Jan-27 23:29 235 6.1
2020-Jan-27 23:24 223 6.1
2020-Jan-27 23:19 339 2 gusting 4 6.1
2020-Jan-27 23:14 331 6.1
2020-Jan-27 23:09 287 6.1
2020-Jan-27 23:04 287 6.1
2020-Jan-27 22:59 295 1 gusting 2 6.1
2020-Jan-27 22:54 317 6.1
2020-Jan-27 22:49 271 6.1
2020-Jan-27 22:44 290 6.1
2020-Jan-27 22:39 315 3 gusting 3 6.1
2020-Jan-27 22:34 323 6.7
2020-Jan-27 22:29 303 2 gusting 2 6.7
2020-Jan-27 22:24 277 6.7
2020-Jan-27 22:19 293 6.7
2020-Jan-27 22:14 323 6.7
2020-Jan-27 22:09 320 6.7
2020-Jan-27 22:04 239 6.7
2020-Jan-27 21:59 308 6.7
2020-Jan-27 21:54 289 6.7
2020-Jan-27 21:49 285 6.7
2020-Jan-27 21:44 251 0 gusting 2 6.7
2020-Jan-27 21:39 298 6.7
2020-Jan-27 21:34 284 6.7
2020-Jan-27 21:29 284 6.7
2020-Jan-27 21:24 271 6.7
2020-Jan-27 21:19 321 6.7
2020-Jan-27 21:14 295 6.7
2020-Jan-27 21:09 269 6.7
2020-Jan-27 21:04 346 7.2
2020-Jan-27 20:59 346 7.2
2020-Jan-27 20:54 298 7.2
2020-Jan-27 20:49 254 7.2
2020-Jan-27 20:44 289 7.2
2020-Jan-27 20:39 302 7.2
2020-Jan-27 20:34 336 7.2
2020-Jan-27 20:29 296 7.2
2020-Jan-27 20:24 323 7.2
2020-Jan-27 20:19 281 7.2
2020-Jan-27 20:14 329 7.2
2020-Jan-27 20:09 287 7.2
2020-Jan-27 20:04 277 7.2
2020-Jan-27 19:59 317 7.2
2020-Jan-27 19:54 303 7.2
2020-Jan-27 19:49 317 7.2
2020-Jan-27 19:44 319 7.2
2020-Jan-27 19:39 300 7.2
2020-Jan-27 19:34 286 7.2
2020-Jan-27 19:29 205 7.2
2020-Jan-27 19:24 244 7.2
2020-Jan-27 19:19 240 7.2
2020-Jan-27 19:14 273 7.2
2020-Jan-27 19:09 223 7.2
2020-Jan-27 19:04 238 6.7
2020-Jan-27 18:59 273 6.7
2020-Jan-27 18:54 281 6.7
2020-Jan-27 18:49 241 6.7
2020-Jan-27 18:44 245 6.7
2020-Jan-27 18:39 244 6.7
2020-Jan-27 18:34 243 6.7
2020-Jan-27 18:29 234 6.7
2020-Jan-27 18:24 248 6.7
2020-Jan-27 18:19 252 6.7
2020-Jan-27 18:14 310 6.7
2020-Jan-27 18:09 231 6.7
2020-Jan-27 18:04 303 6.7
2020-Jan-27 17:59 277 6.1
2020-Jan-27 17:54 277 6.1
2020-Jan-27 17:49 303 1 gusting 1 6.7
2020-Jan-27 17:44 258 6.7
2020-Jan-27 17:39 284 6.7
2020-Jan-27 17:34 306 6.7
2020-Jan-27 17:29 255 6.7
2020-Jan-27 17:24 243 6.7
2020-Jan-27 17:19 016 6.7
2020-Jan-27 17:14 273 6.7
2020-Jan-27 17:09 277 6.7
2020-Jan-27 17:04 240 2 gusting 8 6.7
2020-Jan-27 16:59 273 1 gusting 11 6.7
2020-Jan-27 16:54 229 2 gusting 7 6.7
2020-Jan-27 16:49 250 6.7
2020-Jan-27 16:44 238 6.7
2020-Jan-27 16:39 288 6.7
2020-Jan-27 16:34 234 6.1
2020-Jan-27 16:29 246 6.1
2020-Jan-27 16:24 228 6.1
2020-Jan-27 16:19 275 6.1
2020-Jan-27 16:14 229 6.1
2020-Jan-27 16:09 191 6.1
2020-Jan-27 16:04 259 6.1
2020-Jan-27 15:59 250 6.1
2020-Jan-27 15:54 238 6.1
2020-Jan-27 15:49 211 6.1
2020-Jan-27 15:44 212 6.1
2020-Jan-27 15:39 275 6.1
2020-Jan-27 15:34 261 6.1
2020-Jan-27 15:29 271 5.6
2020-Jan-27 15:24 239 5.6
2020-Jan-27 15:19 242 5.6
2020-Jan-27 15:14 228 5.6
2020-Jan-27 15:09 229 5.6
2020-Jan-27 15:04 238 5.6
2020-Jan-27 14:59 232 5.6
2020-Jan-27 14:54 234 5.6
2020-Jan-27 14:49 235 5.6
2020-Jan-27 14:44 257 5.6
2020-Jan-27 14:39 229 5.0
2020-Jan-27 14:34 228 5.0
2020-Jan-27 14:29 202 5.0
2020-Jan-27 14:24 234 5.0
2020-Jan-27 14:19 220 5.0
2020-Jan-27 14:14 232 5.0
2020-Jan-27 14:09 217 5.0
2020-Jan-27 14:04 219 4.4
2020-Jan-27 13:59 198 4.4
2020-Jan-27 13:54 229 4.4
2020-Jan-27 13:49 238 3.9
2020-Jan-27 13:44 231 3.9
2020-Jan-27 13:39 236 3.9
2020-Jan-27 13:34 248 3.9
2020-Jan-27 13:29 248 3.9
2020-Jan-27 13:24 200 3.9
2020-Jan-27 13:19 224 3.9
2020-Jan-27 13:14 210 3.3
2020-Jan-27 13:09 216 3.3
2020-Jan-27 13:04 237 3.3
2020-Jan-27 12:59 252 3.3
2020-Jan-27 12:54 223 3.3
2020-Jan-27 12:49 214 3.3
2020-Jan-27 12:44 240 3.3
2020-Jan-27 12:39 213 3.3
2020-Jan-27 12:34 233 3.3
2020-Jan-27 12:29 235 3.3
2020-Jan-27 12:24 230 3.3
2020-Jan-27 12:19 238 3.3
2020-Jan-27 12:14 247 3.3
2020-Jan-27 12:09 215 3.3
2020-Jan-27 12:04 228 3.3
2020-Jan-27 11:59 244 3.3
2020-Jan-27 11:54 238 3.3
2020-Jan-27 11:49 232 2.8
2020-Jan-27 11:44 234 2.8
2020-Jan-27 11:39 241 2.8
2020-Jan-27 11:34 204 2.8
2020-Jan-27 11:29 207 2.8
2020-Jan-27 11:24 246 2.8
2020-Jan-27 11:19 219 2.8
2020-Jan-27 11:14 235 2.8
2020-Jan-27 11:09 247 3.3
2020-Jan-27 11:04 230 3.3
2020-Jan-27 10:59 220 3.3
2020-Jan-27 10:54 219 3.3
2020-Jan-27 10:49 234 3.3
2020-Jan-27 10:44 222 3.3
2020-Jan-27 10:39 248 3.3
2020-Jan-27 10:34 231 3.3
2020-Jan-27 10:29 225 3.3
2020-Jan-27 10:24 226 3.3
2020-Jan-27 10:19 236 2.8
2020-Jan-27 10:14 223 2.8
2020-Jan-27 10:09 211 2.8
2020-Jan-27 10:04 240 2.8
2020-Jan-27 09:59 236 2.8
2020-Jan-27 09:54 221 2.8
2020-Jan-27 09:49 225 2.8
2020-Jan-27 09:44 228 2.8
2020-Jan-27 09:39 237 2.8
2020-Jan-27 09:34 221 2.8
2020-Jan-27 09:29 222 2.8
2020-Jan-27 09:24 239 2.8
2020-Jan-27 09:19 229 2.8
2020-Jan-27 09:14 221 2.8
2020-Jan-27 09:09 243 2.8
2020-Jan-27 09:04 188 2.2
2020-Jan-27 08:59 211 2.2
2020-Jan-27 08:54 228 2.2
2020-Jan-27 08:49 222 2.2
2020-Jan-27 08:44 252 2.2
2020-Jan-27 08:39 219 2.2
2020-Jan-27 08:34 223 2.2
2020-Jan-27 08:29 221 2.2
2020-Jan-27 08:24 221 1.7
2020-Jan-27 08:19 252 0 gusting 2 1.7
2020-Jan-27 08:14 239 1.7
2020-Jan-27 08:09 224 2 gusting 3 1.7
2020-Jan-27 08:04 237 1.1
2020-Jan-27 07:59 240 1.1
2020-Jan-27 07:54 243 1.1
2020-Jan-27 07:49 247 0.6
2020-Jan-27 07:44 227 1 gusting 4 0.6
2020-Jan-27 07:39 244 2 gusting 5 -0.0
2020-Jan-27 07:34 232 4 gusting 5 -0.0
2020-Jan-27 07:29 252 0 gusting 5 -0.0
2020-Jan-27 07:24 250 2 gusting 3 -0.6
2020-Jan-27 07:19 250 2 gusting 5 -0.6
2020-Jan-27 07:14 251 -0.6
2020-Jan-27 07:09 251 2 gusting 3 -0.6
2020-Jan-27 07:04 251 -0.6
2020-Jan-27 06:59 251 -0.6
2020-Jan-27 06:54 251 -0.6
2020-Jan-27 06:49 251 -0.6
2020-Jan-27 06:44 251 -0.6
2020-Jan-27 06:39 251 -0.6
2020-Jan-27 06:34 251 -0.6
2020-Jan-27 06:29 251 -0.6
2020-Jan-27 06:24 251 -0.6
2020-Jan-27 06:19 251 0 gusting 2 -0.6
2020-Jan-27 06:14 251 -0.0
2020-Jan-27 06:09 251 -0.0
2020-Jan-27 06:04 251 -0.0
2020-Jan-27 05:59 251 -0.0
2020-Jan-27 05:54 251 -0.0
2020-Jan-27 05:49 251 -0.0
2020-Jan-27 05:44 251 -0.0
2020-Jan-27 05:39 251 -0.0
2020-Jan-27 05:34 251 -0.0
2020-Jan-27 05:29 251 -0.0
2020-Jan-27 05:24 251 0.6
2020-Jan-27 05:19 251 0.6
2020-Jan-27 05:14 251 0.6
2020-Jan-27 05:09 251 1 gusting 0 0.6
2020-Jan-27 05:04 251 0 gusting 0 0.6
2020-Jan-27 04:59 251 0.6
2020-Jan-27 04:54 251 0.6
2020-Jan-27 04:49 251 1.1
2020-Jan-27 04:44 251 1.1
2020-Jan-27 04:39 251 1.1
2020-Jan-27 04:34 251 1.1
2020-Jan-27 04:29 251 1.1
2020-Jan-27 04:24 251 1.1
2020-Jan-27 04:19 251 1.1
2020-Jan-27 04:14 251 1.7
2020-Jan-27 04:09 251 1.7
2020-Jan-27 04:04 251 1.7
2020-Jan-27 03:59 251 1.7
2020-Jan-27 03:54 251 2.2
2020-Jan-27 03:49 251 2.2
2020-Jan-27 03:44 251 2.2
2020-Jan-27 03:39 251 2.2
2020-Jan-27 03:34 251 2.2
2020-Jan-27 03:29 251 2.8
2020-Jan-27 03:24 251 2.8
2020-Jan-27 03:19 251 2.8
2020-Jan-27 03:14 251 2.8
2020-Jan-27 03:09 251 2.8
2020-Jan-27 03:04 251 3.3
2020-Jan-27 02:59 251 3.3
2020-Jan-27 02:54 251 3.3
2020-Jan-27 02:49 251 3.3
2020-Jan-27 02:44 251 3.3
2020-Jan-27 02:39 251 3.9
2020-Jan-27 02:34 251 3.9
2020-Jan-27 02:29 251 3.9
2020-Jan-27 02:24 251 3.9
2020-Jan-27 02:19 251 0 gusting 1 3.9
2020-Jan-27 02:14 251 3.9
2020-Jan-27 02:09 251 4.4
2020-Jan-27 02:04 251 0 gusting 3 4.4
2020-Jan-27 01:59 285 4.4
2020-Jan-27 01:54 300 4.4
2020-Jan-27 01:49 288 4.4
2020-Jan-27 01:44 238 1 gusting 6 4.4
2020-Jan-27 01:39 302 4.4
2020-Jan-27 01:34 222 0 gusting 3 4.4
2020-Jan-27 01:29 237 0 gusting 5 4.4
2020-Jan-27 01:24 230 4.4
2020-Jan-27 01:19 230 4.4
2020-Jan-27 01:14 244 4.4
2020-Jan-27 01:09 274 0 gusting 4 5.0
2020-Jan-27 01:04 290 5.0
2020-Jan-27 00:59 290 1 gusting 3 5.0
2020-Jan-27 00:54 290 5.0
2020-Jan-27 00:49 290 5.0
2020-Jan-27 00:44 264 5.0
2020-Jan-27 00:39 264 5.0
2020-Jan-27 00:34 304 5.6
2020-Jan-27 00:29 240 5.6
2020-Jan-27 00:24 240 5.6
2020-Jan-27 00:19 252 2 gusting 4 5.6
2020-Jan-27 00:14 337 0 gusting 2 5.6
2020-Jan-27 00:09 242 6.1
2020-Jan-27 00:04 315 6.1
2020-Jan-26 23:59 315 1 gusting 2 6.1
2020-Jan-26 23:54 319 2 gusting 6 6.1
2020-Jan-26 23:49 294 6.1
2020-Jan-26 23:44 306 0 gusting 7 6.1
2020-Jan-26 23:39 300 0 gusting 6 6.1
2020-Jan-26 23:34 284 3 gusting 9 6.1
2020-Jan-26 23:29 251 3 gusting 6 6.1
2020-Jan-26 23:24 340 4 gusting 8 6.1
2020-Jan-26 23:19 315 3 gusting 5 6.7
2020-Jan-26 23:14 293 2 gusting 6 6.7
2020-Jan-26 23:09 273 1 gusting 6 6.7
2020-Jan-26 23:04 265 0 gusting 6 6.7
2020-Jan-26 22:59 239 1 gusting 4 6.7
2020-Jan-26 22:54 305 0 gusting 6 6.7
2020-Jan-26 22:49 279 1 gusting 6 6.7
2020-Jan-26 22:44 306 0 gusting 4 6.7
2020-Jan-26 22:39 234 6.7
2020-Jan-26 22:34 338 2 gusting 6 6.7
2020-Jan-26 22:29 242 2 gusting 5 6.7
2020-Jan-26 22:24 266 6.7
2020-Jan-26 22:19 300 6.7
2020-Jan-26 22:14 300 1 gusting 6 6.7
2020-Jan-26 22:09 283 0 gusting 5 6.7
2020-Jan-26 22:04 299 1 gusting 4 6.7